Theta_e
322 314 309 308 300 296 292 295 299 302 304 311 314 314 312 313 308 301 329 335 336 338 341 344 347 347 346 346 345 346 346 343 341 340 338 338 337 336 336 336 336 336 336 335 336 335 336 336 336
315 313 310 301 295 291 293 298 299 303 311 316 315 315 313 310 318 327 330 336 339 337 339 341 344 347 346 346 346 346 346 345 341 340 339 337 337 336 335 335 335 335 335 335 335 335 335 335 334
311 309 303 299 293 291 293 300 303 307 312 309 313 317 313 314 322 327 335 339 336 335 338 339 342 345 345 346 346 346 346 345 341 339 337 337 337 336 335 334 334 334 333 334 335 334 334 334 334
308 307 302 295 293 295 300 304 305 305 308 313 314 311 317 322 323 330 337 337 333 334 336 339 343 346 346 346 346 346 345 344 341 339 337 336 335 334 334 334 334 333 332 333 333 333 333 334 334
307 303 296 292 293 296 301 306 305 304 305 309 312 310 312 321 329 335 336 335 331 332 335 338 342 344 345 345 346 345 344 342 339 338 335 334 335 334 334 334 333 333 332 332 332 332 332 333 333
302 301 294 292 293 296 300 306 305 303 306 310 312 312 312 322 330 332 336 333 332 332 334 337 335 339 342 343 344 344 344 342 339 337 335 334 334 334 333 334 333 333 331 331 331 331 331 331 331
300 297 293 293 293 293 299 303 303 304 305 305 315 308 310 317 330 334 334 333 333 333 333 333 335 335 335 338 339 341 341 340 338 338 336 336 336 335 334 334 333 332 331 330 330 330 330 330 330
302 302 296 293 293 294 301 301 304 306 305 312 317 307 307 319 331 333 332 331 333 331 331 331 332 333 332 333 333 334 336 337 336 335 333 331 332 332 332 331 333 331 330 330 329 329 329 328 329
304 295 294 298 296 296 302 300 303 307 309 313 315 313 315 323 330 328 327 328 330 330 328 329 329 329 329 330 328 329 331 332 331 329 326 324 324 324 324 327 331 330 329 328 328 327 326 326 325
301 294 298 303 298 299 302 301 304 305 306 306 310 316 320 327 327 325 324 323 325 327 326 328 328 328 328 332 328 327 328 326 324 323 322 323 322 321 323 321 326 328 328 329 327 326 326 321 318
301 297 303 300 298 302 301 299 301 304 302 306 309 315 319 322 324 325 325 324 324 327 327 326 327 327 325 327 325 324 323 322 321 321 322 321 321 320 319 319 320 318 319 318 319 319 318 318 318
298 302 305 303 300 299 299 301 299 303 303 305 313 319 320 321 322 324 325 325 324 325 325 326 326 327 325 324 324 323 321 320 320 320 321 319 316 316 315 316 316 315 316 315 316 317 318 318 319
298 300 306 305 301 298 299 298 298 298 300 310 318 320 319 320 321 323 325 325 327 326 326 325 325 326 325 322 322 323 321 320 321 321 322 318 314 313 313 313 313 314 315 316 316 317 318 318 318
303 303 304 303 300 297 297 296 296 298 304 313 316 317 318 319 320 320 321 322 325 327 327 327 325 326 326 325 321 322 321 322 321 321 321 318 316 314 316 316 317 317 318 318 318 318 318 317 318
306 298 302 300 299 296 299 296 296 298 311 312 313 313 317 318 318 321 323 323 323 325 328 327 326 325 324 325 323 321 322 322 321 321 321 320 319 317 317 317 317 318 318 318 318 317 317 315 315
298 297 294 299 299 299 298 292 299 301 309 309 311 312 314 316 318 320 321 322 323 324 324 327 329 324 323 323 322 322 321 321 321 322 322 321 320 319 317 317 318 319 319 318 318 316 315 313 312
291 288 292 295 300 299 297 292 299 301 305 305 309 310 313 313 315 319 320 322 321 323 324 325 327 326 323 323 322 320 318 318 319 319 320 320 320 319 318 317 318 319 318 317 317 315 314 311 312
287 287 291 293 297 296 293 292 298 300 298 299 301 308 311 314 315 319 320 321 321 322 323 325 327 327 326 321 319 317 317 317 317 318 318 319 319 319 318 317 318 318 317 315 314 314 313 312 312
293 291 291 293 298 295 295 294 296 299 297 297 296 297 307 312 317 318 320 321 321 320 321 323 324 326 326 323 316 315 317 316 315 316 318 319 319 319 317 317 317 317 316 316 315 314 312 313 314
294 291 289 295 297 295 295 295 296 297 299 299 300 296 297 303 311 316 318 319 320 321 321 322 323 325 326 327 324 318 317 315 317 316 317 319 319 319 318 317 316 316 315 315 314 313 311 313 314
293 292 291 293 293 293 291 292 294 297 300 300 301 302 300 300 301 311 316 318 320 321 320 321 323 324 325 326 322 317 316 315 314 314 316 318 320 320 319 318 317 316 316 315 313 312 313 311 314
291 297 297 295 291 287 292 284 292 294 297 298 302 301 302 300 301 306 314 317 319 321 322 322 323 323 324 325 324 323 321 317 319 319 318 317 320 320 320 320 319 318 317 315 314 314 314 313 312
293 299 298 294 289 289 288 289 289 292 293 297 301 303 303 303 301 303 311 317 319 321 322 322 322 322 323 323 324 323 322 322 321 317 316 317 319 320 321 320 319 318 317 317 315 312 314 316 316
298 296 294 291 290 286 289 289 286 290 294 296 299 301 303 303 301 302 306 314 318 320 321 321 321 322 323 322 323 322 322 322 318 317 317 317 319 319 320 319 320 319 318 317 317 316 315 316 318
298 293 285 284 284 281 286 285 290 293 297 298 301 301 300 302 300 300 299 308 314 316 320 319 319 319 322 322 322 322 322 322 321 319 318 317 317 318 319 318 318 319 318 318 317 316 316 318 318
294 292 282 277 278 280 285 283 289 297 301 302 299 299 299 299 299 299 299 303 311 315 318 319 317 317 319 321 321 322 321 321 320 320 319 319 319 319 318 318 319 319 318 317 317 317 317 319 318
294 290 291 282 272 277 282 285 290 293 294 295 296 298 299 298 296 297 298 297 305 311 315 318 319 318 315 317 319 319 320 320 319 319 318 319 320 319 316 318 318 319 318 318 318 317 318 316 316
296 298 287 284 274 273 279 280 285 288 295 297 295 296 300 297 294 293 294 296 296 304 310 314 317 319 320 315 315 316 317 318 319 317 317 319 320 318 314 316 317 318 318 319 319 319 317 315 314
292 292 291 289 282 278 275 280 288 293 294 295 297 295 295 295 294 292 292 292 294 299 305 309 312 313 315 316 317 314 313 314 315 317 317 318 318 317 318 317 318 318 318 319 318 317 316 310 312
297 293 293 287 283 281 280 283 290 291 293 293 295 295 293 292 292 292 293 293 293 293 295 301 305 307 309 312 314 315 315 314 314 315 317 319 320 320 320 319 318 318 318 318 315 314 311 309 308
Wind_Speed
8 8 2 6 5 6 1 1 2 3 2 3 2 4 7 3 2 3 2 4 8 6 5 6 11 13 13 12 13 12 13 15 17 16 15 15 16 15 18 14 14 16 16 16 16 17 17 17 19
6 6 5 3 6 3 4 3 4 1 5 7 6 3 5 2 2 5 5 5 7 7 5 5 10 11 12 12 11 11 12 16 17 16 14 15 15 13 15 15 14 16 16 16 16 16 16 17 17
4 4 4 5 4 4 4 3 4 2 7 1 4 5 2 4 2 6 5 10 6 6 5 5 9 10 12 11 11 12 14 15 18 16 14 13 14 12 12 14 14 15 14 14 15 16 16 16 17
4 5 5 5 3 3 5 5 4 6 2 5 4 6 2 1 4 6 10 11 7 6 6 7 8 10 13 11 13 13 14 15 17 16 13 13 13 13 13 13 14 14 14 14 14 14 15 15 14
4 3 4 2 3 1 1 5 6 3 3 3 2 3 2 2 4 12 12 10 10 6 5 5 9 8 11 10 12 13 13 15 15 14 12 12 12 12 12 13 13 13 13 13 13 13 14 14 13
4 3 4 2 3 3 1 4 5 3 3 4 6 5 4 2 9 7 11 9 7 9 5 5 7 10 8 8 10 11 13 15 14 13 13 12 11 12 12 12 12 12 12 12 12 11 12 13 12
3 4 3 3 3 2 4 6 4 5 6 2 9 6 2 3 6 10 10 9 7 6 6 4 5 6 8 9 8 9 11 13 12 11 11 10 8 10 11 11 12 12 11 11 11 10 9 10 10
4 2 3 2 4 4 4 3 4 4 2 4 5 6 5 6 10 11 10 9 7 6 4 4 5 5 3 5 10 9 9 9 10 9 10 9 8 7 7 6 9 11 10 9 8 8 7 7 9
4 3 2 3 4 3 4 4 1 2 6 2 1 6 3 11 11 9 9 7 6 5 4 4 5 5 5 4 4 7 9 8 9 8 9 6 3 4 4 3 5 7 7 7 5 4 4 4 7
4 3 6 2 4 4 5 4 7 4 3 1 0 2 5 13 13 14 11 11 9 8 6 5 5 6 6 5 6 5 4 4 4 5 5 4 3 2 3 3 4 4 3 2 2 2 3 4 3
3 5 3 2 1 4 4 1 1 7 3 7 8 7 9 8 10 14 13 13 14 12 7 7 6 5 5 4 3 2 3 3 3 6 5 4 4 3 2 2 1 2 2 1 3 2 1 1 2
3 5 4 4 1 3 3 4 3 6 6 1 8 14 13 13 13 15 14 13 11 12 11 9 7 6 5 4 4 4 4 3 4 4 4 4 2 2 2 2 2 1 1 2 2 1 1 1 1
4 3 4 2 4 2 4 5 4 6 5 6 8 10 14 12 10 7 8 7 10 13 12 11 9 8 6 5 4 4 4 4 4 5 5 4 3 3 2 2 2 2 2 2 2 2 2 2 2
2 6 4 2 1 2 5 3 2 3 2 6 10 11 12 13 13 6 7 8 10 12 13 11 11 9 8 7 6 6 4 5 4 4 4 6 5 5 5 4 4 4 4 3 3 2 2 2 2
2 1 0 4 3 3 4 5 6 2 4 6 8 7 8 10 8 15 13 11 10 7 11 11 12 10 9 9 8 6 6 6 5 5 6 7 6 6 5 4 3 4 3 3 1 1 1 2 2
3 2 3 3 6 3 6 8 6 7 7 8 9 8 10 12 14 9 8 9 10 9 9 9 9 9 10 9 7 6 6 6 6 6 5 7 6 6 5 4 4 4 3 4 3 3 2 1 1
4 4 5 2 7 3 5 5 8 4 8 9 9 8 9 7 9 11 10 11 10 11 11 9 9 11 11 9 6 6 6 5 4 4 5 6 6 6 6 4 4 5 4 3 3 2 1 1 1
6 4 3 6 7 5 5 8 7 4 6 11 8 8 9 10 17 15 11 10 9 10 11 12 10 12 11 5 4 2 3 4 4 6 5 6 6 7 5 4 4 4 3 3 2 3 2 1 3
5 4 5 3 3 4 7 12 10 12 6 8 8 9 11 13 15 8 11 11 8 8 11 14 13 13 9 6 5 4 7 5 3 5 7 7 6 7 6 4 5 4 5 5 5 3 4 2 3
3 2 3 4 3 4 8 14 11 8 10 9 10 10 12 12 10 9 11 11 13 14 13 13 14 15 12 9 6 4 5 3 4 3 5 6 7 7 7 6 5 6 4 5 5 4 3 3 6
4 6 4 5 2 3 3 13 11 8 12 9 9 11 10 15 15 13 12 15 13 15 16 15 16 15 12 13 4 3 3 2 3 3 4 7 8 8 8 8 7 7 6 7 6 6 7 5 5
11 7 4 4 3 5 5 9 7 6 14 10 16 13 15 13 12 13 13 13 16 18 15 15 15 15 14 15 11 13 11 10 9 8 6 6 10 10 10 10 10 9 7 7 7 6 6 4 5
6 7 11 1 3 5 4 5 6 2 7 10 16 16 15 13 15 14 14 17 17 15 16 15 14 14 14 13 15 12 14 10 7 4 8 10 9 12 12 11 10 10 7 9 8 6 8 7 6
7 5 3 3 2 12 10 10 7 8 8 9 10 12 13 11 12 15 13 11 13 12 13 13 15 16 14 15 16 17 17 15 8 8 9 7 7 7 10 10 11 10 9 10 9 9 9 10 9
8 9 3 6 8 13 6 8 19 6 10 11 14 13 10 10 9 12 10 10 12 12 14 13 14 16 16 16 16 18 17 14 15 12 9 8 7 7 10 10 10 9 10 10 9 9 10 11 10
25 17 6 9 7 5 4 12 10 13 19 17 11 11 8 9 8 10 12 11 13 13 15 14 15 16 15 15 17 14 14 11 11 11 9 9 9 9 7 9 11 12 10 10 9 9 10 11 11
10 16 8 5 2 2 7 9 8 10 11 11 12 10 13 9 7 8 8 9 9 10 13 15 14 14 13 15 13 13 12 13 12 12 9 10 9 8 8 9 11 12 11 12 11 10 13 10 11
14 13 5 1 5 6 7 7 12 6 21 19 12 13 13 8 7 6 4 5 6 7 7 8 10 14 13 11 11 11 13 13 13 8 11 12 11 9 8 9 11 11 12 13 13 12 12 12 10
12 16 9 7 6 6 4 10 9 19 16 18 19 10 9 9 9 6 4 1 2 3 6 6 7 8 8 8 9 8 8 8 8 11 11 11 9 8 11 12 12 13 13 13 12 13 12 12 13
19 13 20 8 14 4 2 13 5 10 8 4 7 8 6 6 8 6 6 5 5 5 5 7 6 7 7 7 7 8 8 10 12 12 12 10 12 11 13 12 12 12 12 11 12 13 9 11 11
Wind_Direction
331 323 27 38 54 62 29 220 285 127 69 323 25 105 132 48 108 196 321 125 130 130 132 117 115 124 121 123 122 121 113 111 106 101 101 95 92 89 86 84 88 91 91 96 99 92 79 83 88
326 339 39 77 85 70 278 271 167 188 147 128 71 76 49 86 89 121 112 139 123 122 119 119 118 127 131 128 127 128 121 119 107 104 99 100 98 95 93 91 97 94 94 99 101 91 83 91 91
341 40 71 85 115 159 189 205 160 99 162 153 100 58 109 128 128 145 134 134 119 119 119 128 128 137 140 138 130 126 121 116 113 110 109 106 104 104 98 98 96 94 96 101 101 90 87 91 91
10 10 36 82 184 215 197 170 189 143 127 61 119 72 39 243 173 156 139 132 120 121 124 133 131 141 143 146 133 125 121 119 112 112 111 112 111 111 111 104 101 98 97 100 100 91 86 86 95
27 54 56 73 267 263 214 159 161 137 121 116 123 149 73 350 125 135 140 139 131 126 126 137 126 126 138 140 140 133 121 115 112 114 119 118 125 116 116 105 104 100 97 101 102 93 89 90 96
25 90 69 222 262 283 193 149 154 154 139 156 80 110 167 97 130 149 140 138 143 135 144 136 129 124 126 131 140 134 129 124 126 131 131 132 134 122 122 111 104 103 103 103 102 95 89 90 92
105 90 192 173 253 247 206 147 172 170 145 189 144 123 243 191 166 143 137 132 135 125 134 134 126 117 120 138 124 122 126 125 131 135 135 130 125 126 124 119 118 116 113 108 102 93 81 76 85
99 73 141 243 213 214 185 113 123 150 128 115 141 176 202 201 155 138 135 131 136 127 132 143 126 119 113 140 128 120 120 127 127 114 103 96 92 89 100 112 126 123 115 105 92 80 67 58 63
112 60 193 210 179 219 189 135 98 85 117 67 29 152 249 133 138 129 129 129 137 138 145 142 129 121 112 74 94 109 119 115 109 107 102 91 103 103 93 109 103 110 111 111 97 75 43 22 56
99 128 218 243 202 197 186 168 162 129 134 144 55 18 116 138 154 149 163 162 166 169 166 158 150 150 147 137 134 114 102 109 116 123 129 127 129 136 129 129 121 107 92 103 103 30 40 63 66
160 177 239 265 136 149 141 125 248 121 231 205 191 165 155 159 167 165 177 175 173 180 168 169 166 165 155 143 137 128 136 137 140 151 157 159 154 162 164 154 131 132 105 3 351 351 25 68 75
162 248 234 295 46 84 167 131 204 191 225 278 188 160 164 176 182 178 182 183 178 173 178 173 174 165 171 148 161 159 152 158 153 183 173 153 153 175 191 204 202 206 229 230 264 288 281 271 267
156 230 266 289 283 240 139 217 229 236 254 89 132 156 178 185 195 195 182 177 171 179 178 183 172 177 174 173 171 171 173 168 185 179 182 161 169 184 179 220 224 251 292 278 269 256 264 287 280
187 208 244 269 240 234 174 239 118 264 141 124 153 181 189 191 195 183 185 179 187 184 181 178 183 185 177 185 182 186 173 188 183 196 198 184 178 183 189 196 214 226 209 219 226 240 268 312 309
215 54 230 237 213 239 135 287 228 204 154 172 187 189 203 206 194 204 201 190 186 197 183 178 180 183 190 190 192 190 194 183 188 194 196 198 194 199 193 203 213 236 229 240 213 259 317 334 344
142 132 227 237 156 250 151 253 247 209 158 207 215 208 207 215 213 211 205 198 186 187 187 184 179 180 192 198 194 197 199 198 199 196 194 199 199 192 193 200 208 204 193 190 194 196 234 248 230
353 190 180 255 199 128 190 252 241 200 183 220 229 223 221 223 236 219 211 205 188 194 185 193 179 186 195 200 196 197 192 198 207 196 196 201 198 195 195 203 215 201 197 199 199 196 165 224 47
188 180 193 194 211 199 234 253 279 257 191 229 234 229 219 226 229 221 211 209 198 190 190 196 196 192 189 184 178 190 193 210 188 205 203 192 197 203 202 211 215 197 193 210 206 192 184 138 122
151 168 174 219 264 195 237 250 247 260 246 242 239 228 227 226 239 207 218 211 203 197 194 199 197 202 183 183 177 192 212 215 214 203 205 199 202 200 195 204 204 197 196 202 205 165 184 173 147
159 205 219 297 271 171 284 267 241 237 248 230 225 226 230 235 228 220 210 204 203 206 204 201 203 203 198 200 200 193 184 210 219 193 206 202 198 202 202 197 205 197 196 202 195 184 178 196 187
195 175 188 205 318 220 280 272 263 241 237 239 234 225 220 222 227 225 205 207 205 209 205 203 204 202 200 202 152 109 100 120 178 208 205 208 202 207 203 200 199 201 197 207 204 188 188 203 206
229 169 205 218 162 226 158 279 248 237 245 236 246 225 231 226 227 225 210 206 205 214 205 206 205 203 199 191 188 202 211 216 221 215 206 201 202 208 209 208 205 208 205 209 210 197 200 175 210
206 159 208 244 277 339 217 274 268 254 257 246 245 240 230 223 221 224 209 209 208 209 205 201 199 202 201 192 198 200 213 220 216 190 196 206 210 212 211 211 211 213 209 217 206 192 205 209 217
130 92 89 72 129 254 219 216 205 211 205 240 249 248 237 224 213 225 217 210 214 206 200 197 197 204 199 197 200 204 212 214 205 205 213 215 214 216 219 214 215 217 216 215 214 216 210 214 221
173 158 186 198 210 245 182 199 246 231 236 240 251 248 242 235 207 214 211 200 203 191 194 192 196 206 200 199 204 212 214 212 219 216 216 213 213 215 219 212 217 218 219 220 215 214 221 223 223
197 185 170 194 203 258 91 233 244 210 229 243 234 252 269 255 224 213 215 206 203 200 198 196 196 207 202 201 209 210 211 214 219 216 215 220 219 221 208 203 215 219 217 215 213 222 226 228 229
187 208 183 100 64 50 218 282 288 250 262 261 242 233 245 246 258 231 219 210 198 194 195 195 199 206 204 206 208 209 209 213 217 216 206 218 218 218 201 203 208 218 217 219 217 226 232 221 227
184 176 180 130 165 245 256 264 238 234 223 230 244 223 233 229 240 235 204 207 216 206 199 193 197 204 206 202 204 209 210 212 219 207 214 215 219 210 198 203 210 216 219 221 221 231 234 232 231
185 193 196 180 171 192 258 254 209 216 216 232 232 207 208 214 218 210 195 125 114 175 184 189 187 185 193 189 196 199 202 203 205 215 217 220 215 203 208 208 211 218 222 224 225 231 229 219 236
208 205 202 212 217 223 177 258 241 235 251 286 233 204 198 199 196 185 179 163 150 151 163 188 197 196 202 198 195 202 195 195 207 216 221 210 217 214 216 215 218 225 229 229 221 228 224 225 238